FENGYUN 1C DEB, 32241

Orbit data source: Space-Track

FENGYUN 1C DEB, 32241 is space debris in SSO originally from a launch on Mon, 10 May 1999 UTC launched from the Taiyaun Space Center, China (TSC). Fengyun 1C debris stems from the Chinese weather satellite Fengyun-1C, which was intentionally destroyed by a Chinese anti-satellite missile in 2007. This event dramatically increased the amount of space debris, with thousands of trackable fragments posing hazards to satellites and human spaceflight. The Fengyun 1C debris cloud has become a focal point in discussions about space sustainability and the need for international regulations to prevent the creation of new debris.

Loading next visibility...
Identifier
32241, 1999-025CWP
Orbit
SSO
Country
Flag of CNCN / PRC
Related business
Manufacturer
Unknown
Mission
Spacecraft
Bus & Motor
Unknown
Mass
Unknown
Launch date (UTC)
1999-05-10 (26 years ago)
Launch vehicle
Unknown
Launch site
Taiyaun Space Center, China (TSC)
Object type
Payload
Rocket body
Debris
Shape & HBR
Unknown shape, 0.1 m
Radar Cross Section
Small (<0.1 m²)

Expand to show TLE details & history
Last TLE update: 2 days ago

TLE from 2 days ago
0 FENGYUN 1C DEB
1 32241U 99025CWP 25301.33739967  .00004712  00000-0  17059-2 0  9993
2 32241  99.0827 328.9549 0145674 355.3530   4.6288 14.28198529931752
Epoch: 2025-10-28T08:05Z
TLE epoch observation values (Epoch: 2025-10-28T08:05:51.331Z)
Latitude
-0.00005°
Longitude
170.56469°
Altitude
696.469 km
Speed
7.562 km/s
True Right ascension
21h 55m 49s
True Declination
0° 00' 00"
Sunlit
Object was in daylight at epoch
Visualization orbit readout
Latitude
Unknown
Longitude
Unknown
Altitude
Unknown
Speed
Unknown
Apparent Right ascension
Unknown
Apparent Declination
Unknown
Sunlit
N/A
Visualization observer readout
Local Sidereal Time
23:17:58
Azimuth
Unknown
Elevation
Unknown
Doppler factor
Unknown
Orbital elements
Apogee altitude
899.417 km
Perigee altitude
690.431 km
Semi-major axis
7,173.061 km
Eccentricity
0.01457
Inclination
99.0827°
RAAN
328.9549°
Arg. of periapsis
355.353°
True anomaly
4.766°
Mean anomaly
4.6288°
Eccentric anomaly
4.69715°
Mean motion
3.57262 °/min
Orbital period
100.77 mins
BSTAR
0.0017059
Loading maneuver chart data...
Computing Atmospheric mass density...

Documentation

Showing up to 5 results
|